Location: Unspecified
(0.0000°N, 0.0000°E)
Time: 18:25:37
(UTC+00:00)

STARLINK 1032 - Pass Details

Date: 17 January 2020
Orbit: 433 x 435 km, 53.0° (Epoch: 18 January)

Event Time Altitude Azimuth Distance (km) Brightness Sun altitude
Rises 05:05:19 0° 199° (SSW) 2,401 6.9 -15.0°
Reaches altitude 10° 05:07:35 10° 189° (S) 1,532 6.0 -14.5°
Maximum altitude 05:10:41 31° 124° (SE) 773 5.2 -13.8°
Drops below altitude 10° 05:13:47 10° 60° (ENE) 1,525 6.4 -13.1°
Sets 05:16:01 0° 49° (NE) 2,389 7.3 -12.6°
